OYKKT MYCA-MYX7

Flight info

Callsign OYKKT
Flight time 0h 25m
Altitude 3500
Route DCT
Aircraft DA42/L-D/S

Departure

Time 2026-04-28 15:09
Airport Arthur's Town Airport (MYCA)

Arrival

Time 2026-04-28 15:35
Airport Rudder Cut Cay Airport (MYX7)
Time Latitude Longitude Altitude Speed Heading
2026-04-28 14:35 24.62862 -75.67462 136 ft 0 kts 233°
2026-04-28 14:36 24.62863 -75.67462 136 ft 0 kts 233°
2026-04-28 14:38 24.62863 -75.67461 136 ft 0 kts 233°
2026-04-28 14:42 24.62870 -75.67449 4 ft 2 kts 242°
2026-04-28 14:43 24.62876 -75.67434 4 ft 2 kts 255°
2026-04-28 14:43 24.62877 -75.67422 4 ft 2 kts 283°
2026-04-28 14:43 24.62871 -75.67412 4 ft 2 kts 321°
2026-04-28 14:43 24.62864 -75.67408 4 ft 0 kts 335°
2026-04-28 14:48 24.62863 -75.67408 4 ft 0 kts 335°
2026-04-28 14:49 24.62863 -75.67407 4 ft 0 kts 335°
2026-04-28 14:54 24.62862 -75.67407 4 ft 0 kts 335°
2026-04-28 15:00 24.62869 -75.67410 4 ft 2 kts 340°
2026-04-28 15:00 24.62883 -75.67414 4 ft 2 kts 351°
2026-04-28 15:00 24.62894 -75.67415 4 ft 1 kts
2026-04-28 15:00 24.62901 -75.67414 4 ft 0 kts 18°
2026-04-28 15:01 24.62900 -75.67414 4 ft 0 kts 18°
2026-04-28 15:02 24.62924 -75.67411 2 ft 9 kts 358°
2026-04-28 15:02 24.62969 -75.67471 3 ft 18 kts 291°
2026-04-28 15:03 24.63022 -75.67619 2 ft 26 kts 289°
2026-04-28 15:03 24.63099 -75.67835 4 ft 31 kts 292°
2026-04-28 15:03 24.63168 -75.68032 6 ft 25 kts 291°
2026-04-28 15:03 24.63229 -75.68188 5 ft 21 kts 303°
2026-04-28 15:04 24.63231 -75.68228 8 ft 0 kts 178°
2026-04-28 15:04 24.63229 -75.68228 8 ft 0 kts 134°
2026-04-28 15:04 24.63228 -75.68226 8 ft 0 kts 99°
2026-04-28 15:05 24.63228 -75.68225 8 ft 0 kts 108°
2026-04-28 15:05 24.63226 -75.68220 8 ft 1 kts 106°
2026-04-28 15:06 24.63224 -75.68213 8 ft 1 kts 88°
2026-04-28 15:06 24.63220 -75.68203 9 ft 0 kts 135°
2026-04-28 15:08 24.63216 -75.68210 9 ft 7 kts 302°
2026-04-28 15:08 24.63222 -75.68188 8 ft 15 kts 100°
2026-04-28 15:09 24.63123 -75.67894 4 ft 68 kts 112°
2026-04-28 15:09 24.62912 -75.67300 94 ft 91 kts 112°
2026-04-28 15:09 24.62664 -75.66639 371 ft 95 kts 112°
2026-04-28 15:09 24.62383 -75.65981 728 ft 92 kts 117°
2026-04-28 15:10 24.62067 -75.65333 886 ft 101 kts 122°
2026-04-28 15:10 24.61521 -75.64845 1281 ft 103 kts 153°
2026-04-28 15:10 24.60862 -75.64730 1627 ft 98 kts 180°
2026-04-28 15:10 24.60198 -75.64932 1911 ft 97 kts 198°
2026-04-28 15:11 24.59572 -75.65306 2492 ft 98 kts 213°
2026-04-28 15:11 24.58979 -75.65770 2652 ft 115 kts 206°
2026-04-28 15:11 24.58329 -75.66239 2938 ft 114 kts 216°
2026-04-28 15:11 24.57697 -75.66773 3216 ft 115 kts 216°
2026-04-28 15:12 24.57056 -75.67304 3480 ft 116 kts 216°
2026-04-28 15:12 24.56346 -75.67883 3506 ft 137 kts 216°
2026-04-28 15:12 24.55538 -75.68543 3508 ft 151 kts 217°
2026-04-28 15:12 24.54667 -75.69253 3512 ft 160 kts 216°
2026-04-28 15:13 24.53757 -75.69993 3507 ft 165 kts 216°
2026-04-28 15:13 24.52826 -75.70748 3511 ft 168 kts 216°
2026-04-28 15:13 24.51884 -75.71512 3506 ft 169 kts 216°
2026-04-28 15:13 24.50941 -75.72278 3507 ft 168 kts 216°
2026-04-28 15:14 24.49999 -75.73043 3506 ft 169 kts 216°
2026-04-28 15:14 24.49056 -75.73809 3508 ft 169 kts 216°
2026-04-28 15:16 24.41262 -75.80119 3505 ft 169 kts 216°
2026-04-28 15:16 24.40311 -75.80887 3504 ft 170 kts 217°
2026-04-28 15:16 24.39361 -75.81653 3506 ft 170 kts 216°
2026-04-28 15:17 24.38412 -75.82420 3501 ft 169 kts 216°
2026-04-28 15:17 24.37464 -75.83185 3505 ft 169 kts 216°
2026-04-28 15:17 24.36513 -75.83955 3507 ft 170 kts 216°
2026-04-28 15:17 24.35559 -75.84728 3505 ft 171 kts 217°
2026-04-28 15:18 24.34603 -75.85502 3496 ft 171 kts 216°
2026-04-28 15:18 24.33662 -75.86263 3496 ft 170 kts 216°
2026-04-28 15:18 24.32711 -75.87032 3502 ft 170 kts 217°
2026-04-28 15:18 24.31758 -75.87802 3506 ft 171 kts 217°
2026-04-28 15:19 24.30800 -75.88576 3500 ft 171 kts 217°
2026-04-28 15:19 24.29845 -75.89349 3501 ft 170 kts 217°
2026-04-28 15:19 24.28893 -75.90119 3504 ft 170 kts 216°
2026-04-28 15:19 24.27939 -75.90888 3505 ft 170 kts 216°
2026-04-28 15:20 24.26985 -75.91658 3500 ft 170 kts 216°
2026-04-28 15:20 24.26036 -75.92429 3499 ft 170 kts 216°
2026-04-28 15:20 24.25088 -75.93198 3499 ft 169 kts 216°
2026-04-28 15:20 24.24141 -75.93966 3503 ft 170 kts 216°
2026-04-28 15:21 24.23193 -75.94734 3501 ft 170 kts 216°
2026-04-28 15:21 24.22243 -75.95505 3502 ft 170 kts 216°
2026-04-28 15:21 24.21295 -75.96277 3501 ft 169 kts 217°
2026-04-28 15:21 24.20350 -75.97046 3500 ft 169 kts 217°
2026-04-28 15:22 24.19409 -75.97812 3500 ft 168 kts 217°
2026-04-28 15:22 24.18468 -75.98579 3504 ft 169 kts 216°
2026-04-28 15:22 24.17526 -75.99349 3503 ft 169 kts 216°
2026-04-28 15:22 24.16581 -76.00119 3502 ft 169 kts 217°
2026-04-28 15:23 24.15640 -76.00888 3503 ft 169 kts 217°
2026-04-28 15:23 24.14700 -76.01656 3501 ft 169 kts 217°
2026-04-28 15:23 24.13768 -76.02417 3504 ft 170 kts 216°
2026-04-28 15:23 24.12823 -76.03190 3500 ft 169 kts 217°
2026-04-28 15:24 24.11881 -76.03960 3500 ft 169 kts 217°
2026-04-28 15:24 24.10940 -76.04730 3501 ft 169 kts 217°
2026-04-28 15:24 24.09994 -76.05500 3509 ft 170 kts 216°
2026-04-28 15:24 24.09047 -76.06271 3505 ft 170 kts 217°
2026-04-28 15:25 24.08101 -76.07043 3506 ft 170 kts 216°
2026-04-28 15:25 24.07158 -76.07816 3503 ft 169 kts 217°
2026-04-28 15:25 24.06522 -76.08338 3501 ft 169 kts 217°
2026-04-28 15:25 24.05274 -76.09359 3506 ft 169 kts 216°
2026-04-28 15:26 24.04651 -76.09871 3506 ft 169 kts 216°
2026-04-28 15:26 24.03706 -76.10648 3503 ft 170 kts 217°
2026-04-28 15:26 24.02761 -76.11427 3504 ft 170 kts 217°
2026-04-28 15:26 24.01818 -76.12202 3502 ft 170 kts 217°
2026-04-28 15:27 24.00875 -76.12978 3504 ft 170 kts 217°
2026-04-28 15:27 23.99929 -76.13755 3507 ft 170 kts 216°
2026-04-28 15:27 23.98984 -76.14530 3504 ft 170 kts 217°
2026-04-28 15:27 23.98042 -76.15304 3507 ft 169 kts 217°
2026-04-28 15:28 23.97104 -76.16076 3507 ft 170 kts 217°
2026-04-28 15:28 23.96146 -76.16865 3379 ft 173 kts 217°
2026-04-28 15:28 23.95196 -76.17648 3253 ft 169 kts 217°
2026-04-28 15:28 23.94278 -76.18409 3127 ft 163 kts 216°
2026-04-28 15:29 23.93385 -76.19155 3006 ft 160 kts 217°
2026-04-28 15:29 23.92507 -76.19892 2885 ft 158 kts 216°
2026-04-28 15:29 23.91635 -76.20624 2763 ft 158 kts 217°
2026-04-28 15:29 23.90766 -76.21352 2640 ft 157 kts 216°
2026-04-28 15:30 23.89904 -76.22079 2512 ft 156 kts 217°
2026-04-28 15:30 23.89052 -76.22812 2392 ft 156 kts 216°
2026-04-28 15:30 23.88212 -76.23538 2266 ft 156 kts 217°
2026-04-28 15:30 23.87355 -76.24270 2178 ft 159 kts 217°
2026-04-28 15:31 23.86485 -76.25016 2043 ft 158 kts 216°
2026-04-28 15:31 23.85632 -76.25757 1916 ft 156 kts 217°
2026-04-28 15:31 23.85069 -76.26752 1792 ft 157 kts 253°
2026-04-28 15:31 23.84818 -76.27911 1670 ft 157 kts 258°
2026-04-28 15:32 23.84984 -76.29053 1541 ft 154 kts 302°
2026-04-28 15:32 23.85671 -76.29919 1423 ft 149 kts 317°
2026-04-28 15:32 23.86528 -76.30486 1297 ft 142 kts 347°
2026-04-28 15:32 23.87472 -76.30724 1180 ft 134 kts 353°
2026-04-28 15:33 23.88144 -76.30391 1272 ft 101 kts 60°
2026-04-28 15:33 23.88360 -76.29698 1198 ft 89 kts 80°
2026-04-28 15:33 23.88437 -76.29077 1123 ft 80 kts 85°
2026-04-28 15:33 23.88484 -76.28468 973 ft 79 kts 89°
2026-04-28 15:34 23.88499 -76.27857 874 ft 83 kts 87°
2026-04-28 15:34 23.88526 -76.27211 716 ft 85 kts 86°
2026-04-28 15:34 23.88573 -76.26541 384 ft 89 kts 86°
2026-04-28 15:34 23.88619 -76.25902 122 ft 78 kts 87°
2026-04-28 15:35 23.88650 -76.25382 12 ft 52 kts 85°
2026-04-28 15:35 23.88683 -76.25063 18 ft 3 kts 22°
2026-04-28 15:35 23.88695 -76.25067 18 ft 2 kts 265°
2026-04-28 15:36 23.88695 -76.25071 18 ft 0 kts 261°
2026-04-28 15:36 23.88695 -76.25070 18 ft 0 kts 261°